Location: Ay?beleni
(36.6500°N, 30.3000°E)
Time: 03:48:30
(UTC+00:00)

H-2A R/B - Pass Details

Date: 16 October 2021
Orbit: 578 x 653 km, 98.5° (Epoch: 08 December)

Event Time Altitude Azimuth Distance (km) Brightness Sun altitude
Rises 16:39:04 0° 16° (NNE) 2,800 5.3 -16.4°
Reaches altitude 10° 16:41:14 10° 19° (NNE) 1,899 4.4 -16.8°
Maximum altitude 16:45:19 65° 102° (ESE) 644 1.8 -17.7°
Drops below altitude 10° 16:49:25 10° 184° (S) 1,910 4.6 -18.5°
Sets 16:51:36 0° 188° (S) 2,817 5.5 -18.9°
